Regional Weather Roundup
Issued by NWS

Home | Current Version | Previous Version | Graphics & Text | Print | Product List | Glossary On
Versions: 1 2 3 4 5 6 7 8 9 10 11 12 13 14 15 16 17 18 19 20 21 22 23 24 25 26 27 28 29 30 31 32 33 34 35 36 37 38 39 40 41 42 43 44 45 46 47 48 49 50
000
ASUS45 KBOU 020607
RWRCO

WEATHER ROUNDUP FOR COLORADO
NATIONAL WEATHER SERVICE DENVER/BOULDER CO
1100 PM MST SUN MAR 01 2015

NOTE: "FAIR" INDICATES FEW OR NO CLOUDS BELOW 12000 FEET WITH NO
SIGNIFICANT WEATHER AND/OR OBSTRUCTIONS TO VISIBILITY.

COZ001>005-013-030-031-020700-
...NORTHWEST COLORADO...

CITY           SKY/WX    TMP DP  RH WIND       PRES   REMARKS
CRAIG          CLOUDY    32  25  75 E8        30.04F WCI  25
HAYDEN         MOCLDY    28  23  80 SE9       30.03F WCI  20
MEEKER         CLOUDY    31  27  85 CALM      30.02F
MOUNT WERNER   NOT AVBL
STEAMBOAT SPGS CLOUDY    27  25  93 CALM      30.04F
WALDEN         CLOUDY    27  23  86 S7        30.03F WCI  19
$$

COZ006>008-011-020700-
...WEST CENTRAL VALLEYS...

CITY           SKY/WX    TMP DP  RH WIND       PRES   REMARKS
GRAND JUNCTION LGT RAIN  37  34  89 E8        30.03F
MONTROSE       CLOUDY    33  32  96 CALM      30.05F FOG
EAGLE          LGT SNOW  32  30  93 CALM      30.09S VSB 1
RIFLE          LGT RAIN  37  31  78 N5        30.05S
DELTA          CLOUDY    37  36  94 E5        30.04F
NUCLA          CLOUDY    34  32  93 W3        30.07F
$$

COZ017>023-064>068-020700-
...SOUTHWEST COLORADO...

CITY           SKY/WX    TMP DP  RH WIND       PRES   REMARKS
DURANGO        CLOUDY    33  32  96 CALM      30.11F
CORTEZ         MOCLDY    36  34  92 CALM      30.06F
PAGOSA SPRINGS MOCLDY    35  35 100 CALM      30.13F
TELLURIDE      LGT SNOW  35  32  88 CALM      30.10F
WOLF CREEK PAS CLOUDY    23  23 100 SW22G51   30.18S WCI   8
$$

COZ009-010-012-014-032>034-037-058>063-020700-
...CENTRAL COLORADO...

CITY           SKY/WX    TMP DP  RH WIND       PRES   REMARKS
ASPEN          FLURRIES  29  27  92 NW5       30.02F WCI  24
BUENA VISTA    LGT SNOW  20  17  91 SE8       30.12F WCI  10
COPPER MTN     LGT SNOW  27  19  74 S21       30.07F WCI  13
BERTHOUD PASS  SNOW      18  12  79 S13G21    30.08F VSB 1/2 WCI   4
COTTONWOOD PAS LGT SNOW  27  23  86 CALM      30.09F
GUNNISON       CLOUDY    28  25  86 CALM      30.12F
KREMMLING      LGT SNOW  30  27  86 CALM      30.07F
LEADVILLE      LGT SNOW  21  20  96 CALM      30.05F FOG
SALIDA         CLOUDY    22  18  84 SE13G21   30.21F WCI  10
SUNLIGHT       LGT SNOW  27  25  93 S3          N/A
WILKERSON PASS LGT SNOW  23  21  93 SW6       30.12F WCI  16
$$

COZ069>075-020700-
...SAN LUIS VALLEY/SANGRE DE CRISTO MOUNTAINS...

CITY           SKY/WX    TMP DP  RH WIND       PRES   REMARKS
ALAMOSA        MOCLDY    29  27  92 NW5       30.12F WCI  24
LA VETA PASS   LGT SNOW  30  28  93 S9G18     30.15S WCI  22
SAGUACHE       CLOUDY    32  30  93 CALM      30.12F
$$

COZ035-036-038>040-020700-
...NORTHERN COLORADO FRONT RANGE...

CITY           SKY/WX    TMP DP  RH WIND       PRES   REMARKS
DENVER INTL AP CLOUDY    24  19  81 SE12      30.19F WCI  13
DMNS CITY PARK   N/A     25  17  71 NE2       30.18F
AURORA         MOCLDY    24  18  80 SE14      30.18F WCI  11
FRONT RANGE AP NOT AVBL
ERIE MUNI ARPT CLOUDY    25  20  80 CALM      30.20F
BOULDER MUN AP CLOUDY    23  19  86 CALM      30.20F
CENTENNIAL     MOCLDY    22  16  78 SE7       30.16F WCI  13
BROOMFIELD     CLOUDY    25  19  80 N3        30.19F
FORT COLLINS   CLOUDY    25  18  74 S5        30.22F WCI  19
LONGMONT       CLOUDY    27  19  73 CALM      30.23F
$$

COZ041-046-047-076>085-087-088-020700-
...PIKES PEAK/PALMER DIVIDE AND SOUTHERN FOOTHILLS...

CITY           SKY/WX    TMP DP  RH WIND       PRES   REMARKS
COLO. SPRINGS  MOCLDY    21  18  88 S12       30.21F FOG     WCI   9
A. F. ACADEMY  CLOUDY    19  16  88 S9        30.17F WCI   8
ELLICOTT       NOT AVBL
FALCON         CLOUDY    19  18  96 S8        30.18F FOG     WCI   8
FORT CARSON    CLOUDY    22  17  84 S7        30.20F WCI  13
LIMON          CLOUDY    23  20  88 S13       30.24F WCI  11
MONUMENT HILL  PTCLDY    18  14  86 S17       30.12F FOG     WCI   2
TRINIDAD       CLOUDY    23  18  81 CALM      30.24F
$$

COZ042>045-048>051-090-091-020700-
...NORTHEAST COLORADO...

CITY           SKY/WX    TMP DP  RH WIND       PRES   REMARKS
GREELEY ARPT   CLOUDY    27  16  63 SE6       30.22F WCI  20
AKRON          CLOUDY    27  17  66 S12       30.24F WCI  17
BURLINGTON     CLOUDY    28  20  71 S8        30.30F WCI  20
WRAY           CLOUDY    31  17  56 S6        30.31F WCI  26
STERLING       MOCLDY    27  21  80 CALM      30.26F
HOLYOKE        NOT AVBL
FORT MORGAN    MOCLDY    27  18  71 E6        30.25F WCI  20
$$

COZ086-089-092>099-020700-
...SOUTHEAST COLORADO...

CITY           SKY/WX    TMP DP  RH WIND       PRES   REMARKS
PUEBLO         CLOUDY    26  21  81 S5        30.27F WCI  20
LA JUNTA       CLOUDY    29  22  75 CALM      30.31F
LAMAR          CLOUDY    28  23  81 S7        30.32F WCI  21
SPRINGFIELD      N/A     24  21  88 SE3       30.31S
$$


USA.gov is the U.S. government's official web portal to all federal, state and local government web resources and services.